#timestamp,LO_Frequency,Hit,StdDev 
1569693615.4,286046998.7,P
1569693635.3,286046997.1,P
1569693655.1,286046996.6,P
1569693656.0,286046996.6,Y
1569693675.8,286047000.1,P
1569693695.7,286047001.1,N
1569693715.5,286047000.3,N
1569693735.3,286047001.2,N
1569693755.2,286047002.8,N
1569693775.0,286047002.6,N
1569693775.9,286047002.6,N
1569693795.8,286047001.7,N
1569693815.6,286047004.0,N
1569693835.4,286047000.1,N
1569693855.3,286047001.4,N
1569693875.1,286047002.6,N
1569693895.8,286047001.4,N
1569693915.7,286047002.6,N
1569693935.5,286047002.4,N
1569693955.4,286047002.1,N
1569693975.2,286047000.0,N
1569693995.0,286046998.8,N
1569693995.9,286046998.8,N
1569694015.8,286047001.9,N
1569694035.6,286046999.7,N
1569694055.4,286047000.7,N
1569694075.3,286047000.0,N
1569694095.1,286046996.9,N
1569694115.9,286046996.9,N
1569694135.7,286047000.3,N
1569694155.5,286047001.7,N
1569694175.4,286047002.4,N
1569694195.2,286047002.0,N
1569694215.0,286047000.1,N
1569694215.9,286047000.1,N
1569694235.8,286047002.5,N
1569694255.6,286047002.2,N
1569694275.5,286047000.1,N
1569694295.3,286047000.4,N
1569694315.1,286047000.6,N
1569694335.9,286047000.2,N
1569694355.7,286047002.6,N
1569694375.5,286047000.2,N
1569694395.4,286047003.2,N
1569694415.2,286047001.4,N
1569694435.0,286047002.2,N
1569694436.0,286047002.2,N
1569694455.8,286047003.9,N
1569694475.6,286047003.2,N
1569694495.5,286047005.8,Y
1569694545.3,286047002.4,E
1569694555.3,286047002.7,N
1569694575.1,286047000.2,P
1569694576.0,286047000.2,N
1569694595.8,286047001.8,N
1569694615.7,286047004.2,Y
1569694635.5,286047002.7,P
1569694655.3,286047001.5,N
1569694675.2,286047002.8,P
1569694695.0,286047002.7,Y
1569694695.9,286047002.7,P
1569694715.8,286046998.9,P
1569694735.6,286046998.6,N
1569694755.4,286046995.3,N
1569694775.3,286046994.9,N
1569694795.1,286046995.0,N
1569694815.9,286046997.1,N
1569694835.7,286046997.3,N
1569694855.5,286046998.8,N
1569694875.4,286046999.1,N
1569694895.2,286046998.7,N
1569694915.0,286046998.4,N
1569694915.9,286046998.4,N
1569694935.8,286046998.2,N
1569694955.6,286046998.8,N
1569694975.5,286047000.8,N
1569694995.3,286047002.1,N
1569695015.1,286047000.2,N
1569695035.9,286047002.7,N
1569695055.7,286046998.7,N
1569695075.5,286047002.3,N
1569695095.4,286046998.1,N
1569695115.2,286047000.1,N
1569695135.0,286046999.8,N
1569695135.9,286046999.8,N
1569695155.8,286046998.7,N
1569695175.6,286046999.0,N
1569695195.5,286046998.8,N
1569695215.3,286047002.6,N
1569695235.1,286046998.5,N
1569695255.9,286046998.8,N
1569695275.7,286046998.9,N
1569695295.5,286046999.4,N
1569695315.4,286046998.5,N
1569695335.2,286046998.8,N
1569695355.1,286046999.6,N
1569695356.0,286046999.6,N
1569695375.8,286046998.5,N
1569695395.6,286046996.5,N
1569695415.5,286046999.0,N
1569695435.3,286046998.5,N
1569695455.1,286047001.1,N
1569695475.9,286046999.9,N
1569695495.7,286046999.9,N
1569695515.6,286047001.1,N
1569695535.4,286046999.2,N
1569695555.2,286046998.8,N
1569695575.1,286046996.6,N
1569695576.0,286046996.6,N
1569695595.8,286046998.7,N
1569695615.6,286046998.5,N
1569695635.5,286046998.4,N
1569695655.3,286047000.0,N
1569695675.2,286047000.2,N
1569695695.9,286046998.2,N
1569695715.7,286047000.9,N
1569695735.6,286046998.4,N
1569695755.4,286046996.8,N
1569695775.3,286046999.5,N
1569695795.1,286046997.4,N
1569695796.0,286046997.4,N
1569695815.8,286046998.4,N
1569695835.7,286047002.7,N
1569695855.5,286047002.4,N
1569695875.3,286047001.9,N
1569695895.2,286046999.8,N
1569695915.0,286047001.2,N
1569695915.9,286047001.2,N
1569695935.8,286046998.2,N
1569695955.6,286047002.8,N
1569695975.4,286047002.6,N
1569695995.3,286046999.3,N
1569696015.1,286046998.3,N
1569696035.9,286046998.3,N
1569696055.7,286046998.5,N
1569696075.5,286047002.3,N
1569696095.4,286047001.5,N
1569696115.2,286047000.9,N
1569696135.0,286046999.7,N
1569696136.0,286046999.7,N
1569696155.8,286047003.2,N
1569696175.6,286047005.8,Y
1569696195.5,286047005.0,P
1569696215.3,286047005.3,N
1569696235.1,286047005.4,N
1569696255.9,286047004.9,N
1569696275.7,286047002.9,N
1569696295.6,286047001.8,N
1569696315.4,286047000.9,N
1569696335.2,286047002.5,N
1569696355.1,286046998.8,N
1569696356.0,286046998.8,N
1569696375.8,286047000.0,N
1569696395.6,286047004.2,N
1569696415.5,286046999.7,N
1569696435.3,286047000.6,N
1569696455.2,286047000.4,N
1569696475.9,286047000.2,N
1569696495.7,286047001.7,N
1569696515.6,286047001.0,N
1569696535.4,286047000.8,N
1569696555.2,286047005.9,N
1569696575.1,286047003.8,N
1569696576.0,286047003.8,N
1569696595.8,286047001.5,N
1569696615.7,286047004.3,N
1569696635.5,286047001.7,N
1569696655.3,286047000.5,N
1569696675.2,286046999.8,N
1569696695.9,286046998.3,N
1569696715.7,286046998.1,N
1569696735.6,286047000.2,N
1569696755.4,286047000.1,N
1569696775.3,286047000.6,N
1569696795.1,286046998.8,N
1569696796.0,286046998.8,N
1569696815.8,286047002.7,N
1569696835.7,286046999.4,N
1569696855.5,286046999.0,N
1569696875.3,286046997.5,N
1569696895.2,286046998.0,N
1569696915.0,286046999.2,N
1569696915.9,286046999.2,N
1569696935.8,286046999.1,N
1569696955.6,286046999.1,N
1569696975.4,286046998.1,N
1569696995.3,286047001.2,N
1569697015.1,286047000.9,N
1569697035.8,286046998.7,N
1569697055.7,286046996.5,N
1569697075.5,286046996.0,N
1569697095.4,286046995.4,N
1569697115.2,286046994.3,N
1569697135.0,286046999.6,N
1569697135.9,286046999.6,N
1569697155.8,286046996.5,N
1569697175.6,286046997.1,N
1569697195.4,286046999.1,N
